[[{"header":{"parameterUnit":"m.s-1","parameterCategory":1,"la1":30.2991,"la2":30.254,"lo1":-89.0895,"lo2":-89.0444,"dy":0.0017,"dx":0.0017,"nx":28,"ny":28,"refTime":"2025-07-09T03:00:00:Z","depth":0,"parameterNumber":2,"parameterNumberName":"U-component_of_WINDS"},"data":[0,0,0,0,0,0,0,0,0,0,0,0,0,0,0,0,0,0,0,0,0,0,0,0,0,0,0,0,0,0,0,0,0,0,0,0,0,0,0,0,0,0,0,0,0,0,0,0,0,0,0,0,0,0,0,0,0,0,2.9416,2.9417,0,2.9491,2.9492,2.9493,2.9456,2.9454,2.9452,2.945,2.9527,2.953,2.9534,0,0,0,0,0,0,0,0,0,0,0,0,0,2.9238,2.9242,2.9416,2.9417,2.9418,2.9491,2.9492,2.9493,2.9456,2.9454,2.9452,2.9449,2.9525,2.953,2.9535,0,0,0,0,0,0,0,0,0,0,0,0,0,2.9315,2.9243,2.9416,2.9408,2.9408,2.9491,2.9492,2.9493,2.9457,2.9454,2.9451,2.9448,2.9524,2.9529,2.9535,2.9629,0,0,2.9553,2.9555,0,0,0,0,0,0,0,0,2.931,2.9321,2.9408,2.9409,2.9409,2.9461,2.9457,2.9539,2.9458,2.9438,2.945,2.9447,2.9507,2.9514,2.9535,2.9632,2.9636,2.9553,2.9557,2.9559,2.9561,0,0,0,0,0,0,0,2.9305,2.9318,2.9445,2.941,2.941,2.94,2.9408,2.9472,2.9488,2.944,2.9437,2.9447,2.9507,2.9529,2.9536,2.9637,2.9553,2.9558,2.9562,2.9564,2.9811,2.9814,0,0,0,0,0,0,2.93,2.9314,2.9443,2.9448,2.9352,2.9406,2.9415,2.9447,2.9487,2.9491,2.9449,2.9445,2.9521,2.9529,2.9539,2.9648,2.9559,2.9565,2.9568,2.9808,2.9812,2.9815,0,0,0,0,0,0,2.9297,2.9312,2.944,2.938,2.9395,2.9412,2.9449,2.945,2.9473,2.9494,2.9497,2.9469,2.9519,2.9531,2.9606,2.965,2.9567,2.9572,2.9805,2.9809,2.9814,2.9869,0,0,0,0,0,0,2.9292,2.9311,2.9348,2.9381,2.9399,2.9507,2.9452,2.9454,2.9483,2.9478,2.9514,2.9517,2.9517,2.9597,2.9612,2.9657,2.9577,2.9801,2.9807,2.9812,2.9863,2.9875,2.9885,0,0,0,0,0,2.9285,2.9361,2.935,2.9365,2.9445,2.951,2.952,2.9519,2.9487,2.9522,2.9536,2.9516,2.9644,2.9605,2.9621,2.9668,2.9798,2.9805,2.9812,2.9858,2.9873,2.9885,0,0,0,0,0,0,2.9332,2.9365,2.9353,2.9442,2.9473,2.9503,2.9549,2.9534,2.9575,2.9569,2.9566,2.9574,2.9652,2.9668,2.9625,2.9759,2.9715,2.9726,2.9746,2.976,2.977,2.9764,2.9582,0,0,0,0,0,2.9353,2.9403,2.9429,2.9505,2.9521,2.9532,2.956,2.9557,2.9589,2.9602,2.9621,2.9653,2.97,2.9731,2.9776,2.9866,2.9872,2.9906,2.9917,2.9926,2.9934,2.998,2.9995,2.9838,2.9838,2.9838,0,0,2.9396,2.942,2.9452,2.9515,2.9538,2.9589,2.9544,2.96,2.9637,2.9611,2.9682,2.9697,2.9733,2.9815,2.9852,2.9831,2.9979,2.9935,2.9942,2.9945,2.9989,3.0004,3.0017,2.9843,2.9842,2.9842,0,0,2.95,2.9524,2.9588,2.9613,2.9649,2.9656,2.9671,2.9704,2.9712,2.9784,2.9764,2.9809,2.989,2.9915,2.9938,3.005,3.0031,3.0065,3.0121,3.0165,3.0178,3.0188,3.0225,3.0239,3.0073,3.0073,3.0074,0,2.9548,2.9625,2.9623,2.968,2.9707,2.9685,2.9749,2.9773,2.9822,2.9841,2.9816,2.9916,2.9939,3.0025,3.0052,3.0073,3.0088,3.0059,3.0176,3.0187,3.0197,3.0232,3.0246,3.0077,3.0077,3.0076,3.0076,0,2.9681,2.9735,2.9782,2.9829,2.9861,2.9922,2.9928,2.9961,2.9954,2.9963,3.0035,3.0061,3.0109,3.013,3.0125,3.0215,3.02,3.0176,3.0131,3.0215,3.0248,3.0262,3.0082,3.0081,3.008,3.0079,0,0,2.9816,2.9861,2.9878,2.9897,2.9936,2.9976,3.0035,3.0081,3.0108,3.0143,3.019,3.0259,3.0236,3.0263,3.026,3.03,3.0382,3.0271,3.0271,3.0288,3.048,3.0495,3.0511,3.0371,3.0374,3.0376,3.0476,0,2.992,3.0023,3.0022,3.0116,3.0163,3.0143,3.0193,3.0221,3.0231,3.0272,3.0282,3.033,3.0298,3.0313,3.0352,3.0364,3.042,3.0357,3.0413,3.0415,3.0402,3.0529,3.0546,3.0639,3.0489,3.0491,3.0493,0,3.0056,3.0093,3.0192,3.022,3.024,3.0286,3.0327,3.0367,3.0398,3.0402,3.043,3.0421,3.0479,3.0434,3.0512,3.0469,3.0492,3.0501,3.0505,3.0508,3.0457,3.0532,3.0669,3.0682,3.0513,3.0512,3.051,0,3.014,3.0216,3.0284,3.0302,3.0338,3.037,3.0386,3.0414,3.0441,3.0477,3.0494,3.0537,3.056,3.0593,3.0594,3.0562,3.0672,3.0628,3.0675,3.0675,3.0698,3.0696,3.0837,3.0717,3.0717,3.0717,3.0716,0,3.0255,3.0316,3.0322,3.0364,3.043,3.0428,3.0493,3.0507,3.0531,3.0574,3.056,3.06,3.0601,3.0641,3.0643,3.0706,3.0717,3.072,3.072,3.072,3.0719,3.0733,3.0726,3.072,3.072,3.0719,3.0718,0,3.036,3.0368,3.044,3.0467,3.0475,3.0523,3.0545,3.0584,3.0592,3.0646,3.0659,3.0671,3.0718,3.0723,3.0778,3.0779,3.0854,3.0848,3.0843,3.0841,3.0887,3.0881,3.1039,3.1059,3.0929,3.0931,3.0932,0,3.0432,3.0477,3.0509,3.0537,3.0554,3.0599,3.0626,3.0626,3.0655,3.0692,3.0726,3.0771,3.0807,3.0883,3.0896,3.0937,3.093,3.0983,3.0936,3.0934,3.0927,3.0924,3.0927,3.0991,3.0993,3.0994,3.0995,0,3.0557,3.0558,3.0598,3.0638,3.0671,3.0703,3.0733,3.0757,3.076,3.0793,3.084,3.0868,3.0923,3.0968,3.1008,3.1024,3.1009,3.1009,3.1022,3.1022,3.1016,3.1016,3.0865,3.1005,3.1004,3.1003,3.1003,3.1002,3.0646,3.0684,3.0711,3.0756,3.0778,3.0806,3.0843,3.0855,3.0894,3.0939,3.0936,3.0988,3.1015,3.1068,3.1086,3.1126,3.1108,3.1127,3.1131,3.1135,3.1138,3.1012,3.1134,3.1133,3.1133,3.1133,3.1133,0,3.0767,3.0783,3.0824,3.0866,3.09,3.0884,3.0916,3.0945,3.0991,3.1018,3.1053,3.1106,3.1149,3.1165,3.1206,3.1234,3.1228,3.1245,3.1241,3.1245,3.1154,3.1137,3.1249,3.1249,3.1249,3.1249,3.1249,3.1249,3.0834,3.0897,3.0901,3.0974,3.099,3.104,3.1059,3.1084,3.1105,3.1165,3.12,3.121,3.1232,3.1274,3.1312,3.1316,3.133,3.1349,3.1349,3.1263,3.1251,3.124,3.1225,3.1353,3.1353,3.1437,3.1437,3.1438]},{"header":{"parameterUnit":"m.s-1","parameterCategory":1,"la1":30.2991,"la2":30.254,"lo1":-89.0895,"lo2":-89.0444,"dy":0.0017,"dx":0.0017,"nx":28,"ny":28,"refTime":"2025-07-09T03:00:00:Z","depth":0,"parameterNumber":3,"parameterNumberName":"V-component_of_WINDS"},"data":[0,0,0,0,0,0,0,0,0,0,0,0,0,0,0,0,0,0,0,0,0,0,0,0,0,0,0,0,0,0,0,0,0,0,0,0,0,0,0,0,0,0,0,0,0,0,0,0,0,0,0,0,0,0,0,0,0,0,2.1017,2.1018,0,2.1105,2.1106,2.1107,2.1094,2.1093,2.1091,2.109,2.1183,2.1186,2.119,0,0,0,0,0,0,0,0,0,0,0,0,0,2.0839,2.0842,2.1017,2.1018,2.1019,2.1105,2.1106,2.1107,2.1095,2.1093,2.1091,2.1089,2.1181,2.1186,2.1191,0,0,0,0,0,0,0,0,0,0,0,0,0,2.0921,2.0843,2.1017,2.1023,2.1024,2.1105,2.1106,2.1108,2.1095,2.1093,2.1091,2.1088,2.118,2.1185,2.1191,2.1271,0,0,2.1209,2.1211,0,0,0,0,0,0,0,0,2.0916,2.0927,2.1021,2.1023,2.1024,2.1086,2.1077,2.1163,2.1096,2.1068,2.109,2.1087,2.1153,2.116,2.1182,2.1276,2.128,2.1209,2.1213,2.1215,2.1217,0,0,0,0,0,0,0,2.091,2.0923,2.1052,2.1022,2.1024,2.1022,2.1031,2.1093,2.1122,2.107,2.107,2.108,2.1153,2.1176,2.1184,2.1281,2.1209,2.1214,2.1218,2.122,2.1445,2.1447,0,0,0,0,0,0,2.0903,2.0919,2.1049,2.1054,2.0963,2.1027,2.1037,2.1069,2.1121,2.1127,2.1082,2.1079,2.1168,2.1177,2.1187,2.1284,2.1215,2.1221,2.1224,2.1442,2.1445,2.1448,0,0,0,0,0,0,2.0899,2.0914,2.1045,2.0986,2.1003,2.1032,2.1068,2.1072,2.1095,2.113,2.1135,2.1101,2.1166,2.1179,2.125,2.1287,2.1223,2.1229,2.1439,2.1443,2.1447,2.148,0,0,0,0,0,0,2.0894,2.0913,2.0944,2.0987,2.1006,2.1107,2.107,2.1075,2.1105,2.1102,2.1149,2.1154,2.1166,2.1242,2.1256,2.1294,2.1233,2.1436,2.1441,2.1445,2.1475,2.1484,2.1491,0,0,0,0,0,2.0888,2.095,2.0945,2.0961,2.1045,2.1109,2.112,2.1131,2.1108,2.1139,2.1161,2.1153,2.1281,2.1249,2.1265,2.1306,2.1434,2.144,2.1445,2.1472,2.1482,2.1491,0,0,0,0,0,0,2.0911,2.0956,2.0951,2.1029,2.1065,2.1106,2.1146,2.1142,2.1185,2.1181,2.1194,2.1204,2.1276,2.1298,2.1262,2.1386,2.1354,2.1363,2.1369,2.1379,2.1387,2.1381,2.1238,0,0,0,0,0,2.0925,2.0973,2.101,2.1075,2.1093,2.1117,2.1145,2.115,2.1188,2.1204,2.1231,2.1269,2.1318,2.135,2.1397,2.1478,2.1488,2.1514,2.1522,2.1528,2.1536,2.1581,2.1593,2.1467,2.1466,2.1466,0,0,2.0955,2.0986,2.1015,2.1081,2.1109,2.1159,2.113,2.1183,2.122,2.1212,2.1281,2.1302,2.1345,2.1422,2.1457,2.1442,2.1573,2.1536,2.154,2.1545,2.1588,2.16,2.161,2.147,2.147,2.1469,0,0,2.1035,2.1063,2.112,2.1149,2.1192,2.1207,2.1221,2.1263,2.1276,2.1345,2.134,2.1384,2.1468,2.1499,2.1525,2.1616,2.161,2.1631,2.1673,2.1717,2.1727,2.1736,2.1768,2.178,2.1639,2.1639,2.1639,0,2.1068,2.1141,2.1151,2.1205,2.1234,2.1227,2.1286,2.1314,2.137,2.1391,2.1373,2.1477,2.1506,2.159,2.1612,2.1633,2.165,2.1626,2.1724,2.1733,2.1742,2.1773,2.1785,2.1641,2.1641,2.1641,2.164,0,2.1179,2.123,2.1271,2.1325,2.1359,2.1415,2.1433,2.1466,2.1468,2.1485,2.1555,2.1589,2.1642,2.1662,2.1665,2.1747,2.1736,2.1721,2.169,2.1756,2.1786,2.1798,2.1644,2.1644,2.1643,2.1642,0,0,2.1277,2.1334,2.1349,2.1373,2.142,2.146,2.1516,2.1567,2.1595,2.1634,2.1681,2.1752,2.1738,2.1769,2.1775,2.1813,2.1883,2.1794,2.1795,2.1809,2.1974,2.1985,2.1999,2.1879,2.1881,2.1883,2.1971,0,2.1362,2.1459,2.1469,2.1557,2.1604,2.1598,2.1647,2.1681,2.1698,2.1741,2.1761,2.181,2.1789,2.1807,2.1844,2.1866,2.1916,2.186,2.1924,2.1926,2.1913,2.2014,2.2026,2.2108,2.1982,2.1984,2.1986,0,2.1474,2.1515,2.1607,2.1646,2.1667,2.171,2.1758,2.1799,2.1837,2.1847,2.188,2.1882,2.1939,2.1905,2.1986,2.1947,2.1974,2.1988,2.1992,2.1999,2.196,2.2024,2.2134,2.2146,2.2004,2.2003,2.2001,0,2.1536,2.1615,2.168,2.1701,2.1748,2.1779,2.18,2.1836,2.1866,2.1908,2.1928,2.1976,2.2003,2.204,2.2054,2.2028,2.2134,2.2101,2.2144,2.2144,2.2167,2.2166,2.2283,2.2184,2.2184,2.2183,2.2183,0,2.163,2.1687,2.1708,2.1749,2.1812,2.1822,2.1885,2.1905,2.1937,2.1982,2.198,2.2021,2.2037,2.2082,2.2094,2.2158,2.2171,2.218,2.2183,2.2181,2.218,2.2199,2.2194,2.2187,2.2186,2.2185,2.2185,0,2.1711,2.1727,2.1798,2.1837,2.1848,2.1893,2.1926,2.1965,2.1981,2.2038,2.2051,2.2077,2.2129,2.2147,2.2211,2.2219,2.2294,2.2291,2.2281,2.2281,2.2324,2.2319,2.2458,2.2477,2.2364,2.2365,2.2366,0,2.1769,2.1813,2.1856,2.1885,2.1907,2.1954,2.1984,2.1996,2.2028,2.2075,2.2108,2.216,2.2202,2.2286,2.2311,2.2359,2.2358,2.2403,2.2366,2.2362,2.2359,2.2357,2.2361,2.241,2.2412,2.2413,2.2413,0,2.1872,2.1878,2.1921,2.1968,2.2003,2.2041,2.2077,2.2101,2.2118,2.2154,2.2207,2.2239,2.2304,2.2355,2.2405,2.2427,2.2424,2.2425,2.2437,2.2436,2.2428,2.2433,2.23,2.2422,2.2421,2.242,2.242,2.2419,2.1944,2.1982,2.2018,2.2066,2.2094,2.2128,2.2166,2.2186,2.223,2.2283,2.2288,2.2345,2.2382,2.2448,2.2473,2.2518,2.2506,2.2524,2.2529,2.2533,2.2537,2.242,2.2527,2.2527,2.2527,2.2527,2.2527,0,2.2047,2.2069,2.2113,2.2163,2.2201,2.2193,2.2232,2.2265,2.2315,2.2349,2.239,2.2451,2.2501,2.2529,2.2579,2.261,2.2609,2.2623,2.2621,2.2626,2.2545,2.2529,2.2622,2.2622,2.2622,2.2622,2.2622,2.2622,2.2105,2.2168,2.2178,2.2256,2.2279,2.2334,2.2357,2.2388,2.2416,2.2483,2.2524,2.2542,2.2574,2.2626,2.2671,2.2678,2.2697,2.2712,2.2718,2.2641,2.2632,2.2622,2.2608,2.2716,2.2716,2.2795,2.2796,2.2796]}]]